Station ALXN6 - 8311062 - Alexandria Bay, NY Image indicating link to RSS feed of recent meteorological observations for station ALXN6


Conditions at ALXN6 as of
(3:48 pm EDT)
1948 GMT on 04/16/2024:
     

Click on the graph icon in the table below to see a time series plot of the last five days of that observation.

5-day plot - Atmospheric Pressure Atmospheric Pressure (PRES):30.16 in
5-day plot - Water Temperature Water Temperature (WTMP): 43.3 °F
NOS Water Level Observation Network Water Level
Previous observations
TIME
(EDT)
5-day plot - Wind Direction
WDIR
 
5-day plot - Wind Speed
WSPD
kts
5-day plot - Wind Gust
GST
kts
5-day plot - Wave Height
WVHT
ft
5-day plot - Dominant Wave Period
DPD
sec
5-day plot - Average Wave Period
APD
sec
5-day plot - Mean Wave Direction
MWD
 
5-day plot - Atmospheric Pressure
PRES
in
5-day plot - Pressure Tendency
PTDY
in
5-day plot - Air Temperature
ATMP
°F
5-day plot - Water Temperature
WTMP
°F
5-day plot - Dew Point
DEWP
°F
5-day plot - Salinity
SAL
psu
5-day plot - Visibility
VIS
nmi
5-day plot - Tide (above MLLW)
TIDE
ft
2024-04-16 03:42 pm-------30.16-- 43.3----
2024-04-16 03:36 pm-------30.16-- 43.3----
2024-04-16 03:30 pm-------30.16-- 43.3----
2024-04-16 03:24 pm-------30.16-- 43.3----
2024-04-16 03:18 pm-------30.17-- 43.3----
2024-04-16 03:12 pm-------30.16-- 43.3----
2024-04-16 03:06 pm-------30.16-- 43.5----
2024-04-16 03:00 pm-------30.16+0.00- 43.5----
2024-04-16 02:54 pm-------30.16-- 43.3----
2024-04-16 02:48 pm-------30.16-- 43.5----
2024-04-16 02:42 pm-------30.16-- 43.3----
2024-04-16 02:36 pm-------30.16-- 43.3----
2024-04-16 02:30 pm-------30.16-- 43.3----
2024-04-16 02:24 pm-------30.16-- 43.5----
2024-04-16 02:18 pm-------30.17-- 43.3----
2024-04-16 02:12 pm-------30.17-- 43.3----
2024-04-16 02:06 pm-------30.17-- 43.3----
2024-04-16 02:00 pm-------30.17+0.00- 43.3----
2024-04-16 01:54 pm-------30.17-- 43.3----
2024-04-16 01:48 pm-------30.17-- 43.5----
2024-04-16 01:42 pm-------30.16-- 43.5----
2024-04-16 01:36 pm-------30.16-- 43.5----
2024-04-16 01:30 pm-------30.16-- 43.3----
2024-04-16 01:24 pm-------30.17-- 43.2----
2024-04-16 01:18 pm-------30.16-- 43.3----
2024-04-16 01:12 pm-------30.17-- 43.5----
2024-04-16 01:06 pm-------30.17-- 43.5----
2024-04-16 01:00 pm-------30.16+0.00- 43.5----
2024-04-16 12:54 pm-------30.16-- 43.5----
2024-04-16 12:48 pm-------30.16-- 43.3----
2024-04-16 12:42 pm-------30.16-- 43.3----
2024-04-16 12:36 pm-------30.17-- 43.3----
2024-04-16 12:30 pm-------30.17-- 43.5----
2024-04-16 12:24 pm-------30.16-- 43.3----
2024-04-16 12:18 pm-------30.16-- 43.3----
2024-04-16 12:12 pm-------30.16-- 43.3----
2024-04-16 12:06 pm-------30.17-- 43.3----
2024-04-16 12:00 pm-------30.17+0.00- 43.3----
2024-04-16 11:54 am-------30.17-- 43.5----
2024-04-16 11:48 am-------30.17-- 43.5----
2024-04-16 11:42 am-------30.16-- 43.5----
2024-04-16 11:36 am-------30.17-- 43.3----
2024-04-16 11:30 am-------30.16-- 43.3----
2024-04-16 11:24 am-------30.16-- 43.3----
2024-04-16 11:18 am-------30.16-- 43.3----
2024-04-16 11:12 am-------30.16-- 43.2----
2024-04-16 11:06 am-------30.16-- 43.3----
2024-04-16 11:00 am-------30.16+0.01- 43.3----
2024-04-16 10:54 am-------30.16-- 43.3----
2024-04-16 10:48 am-------30.17-- 43.2----
2024-04-16 10:42 am-------30.17-- 43.3----
2024-04-16 10:36 am-------30.16-- 43.3----
2024-04-16 10:30 am-------30.16-- 43.3----
2024-04-16 10:24 am-------30.16-- 43.3----
2024-04-16 10:18 am-------30.16-- 43.3----
2024-04-16 10:12 am-------30.16-- 43.2----
2024-04-16 10:06 am-------30.16-- 43.2----
2024-04-16 10:00 am-------30.16+0.04- 43.3----
2024-04-16 09:54 am-------30.16-- 43.3----
2024-04-16 09:48 am-------30.16-- 43.2----
2024-04-16 09:42 am-------30.16-- 43.2----
2024-04-16 09:36 am-------30.16-- 43.2----
2024-04-16 09:30 am-------30.16-- 43.3----
2024-04-16 09:24 am-------30.16-- 43.2----
2024-04-16 09:18 am-------30.16-- 43.2----
2024-04-16 09:12 am-------30.16-- 43.2----
2024-04-16 09:06 am-------30.16-- 43.2----
2024-04-16 09:00 am-------30.16+0.08- 43.0----
2024-04-16 08:54 am-------30.16-- 43.0----
2024-04-16 08:48 am-------30.16-- 43.2----
2024-04-16 08:42 am-------30.16-- 43.0----
2024-04-16 08:36 am-------30.16-- 43.0----
2024-04-16 08:30 am-------30.16-- 43.0----
2024-04-16 08:24 am-------30.16-- 43.0----
2024-04-16 08:18 am-------30.16-- 43.0----
2024-04-16 08:12 am-------30.16-- 43.0----
2024-04-16 08:06 am-------30.16-- 43.0----
2024-04-16 08:00 am-------30.15+0.08- 43.0----
2024-04-16 07:54 am-------30.15-- 43.0----
2024-04-16 07:48 am-------30.15-- 43.0----
2024-04-16 07:42 am-------30.15-- 43.0----
2024-04-16 07:36 am-------30.14-- 42.8----
2024-04-16 07:30 am-------30.14-- 42.8----
2024-04-16 07:24 am-------30.14-- 42.8----
2024-04-16 07:18 am-------30.14-- 42.8----
2024-04-16 07:12 am-------30.14-- 42.8----
2024-04-16 07:06 am-------30.13-- 42.8----
2024-04-16 07:00 am-------30.13+0.07- 42.8----
2024-04-16 06:54 am-------30.12-- 42.8----
2024-04-16 06:48 am-------30.11-- 42.8----
2024-04-16 06:42 am-------30.11-- 42.8----
2024-04-16 06:36 am-------30.11-- 42.8----
2024-04-16 06:30 am-------30.11-- 42.8----
2024-04-16 06:24 am-------30.10-- 42.8----
2024-04-16 06:18 am-------30.10-- 42.8----
2024-04-16 06:12 am-------30.10-- 42.8----
2024-04-16 06:06 am-------30.09-- 42.8----
2024-04-16 06:00 am-------30.09+0.05- 42.8----
2024-04-16 05:54 am-------30.09-- 42.8----
2024-04-16 05:48 am-------30.09-- 42.8----
2024-04-16 05:42 am-------30.08-- 42.8----
2024-04-16 05:36 am-------30.08-- 42.8----
2024-04-16 05:30 am-------30.08-- 42.8----
2024-04-16 05:24 am-------30.08-- 42.8----
2024-04-16 05:18 am-------30.07-- 42.8----
2024-04-16 05:12 am-------30.07-- 42.8----
2024-04-16 05:06 am-------30.07-- 42.8----
2024-04-16 05:00 am-------30.07+0.05- 42.8----
2024-04-16 04:54 am-------30.07-- 42.8----
2024-04-16 04:48 am-------30.07-- 42.8----
2024-04-16 04:42 am-------30.06-- 42.8----
2024-04-16 04:36 am-------30.06-- 42.8----
2024-04-16 04:30 am-------30.06-- 42.8----
2024-04-16 04:24 am-------30.06-- 42.8----
2024-04-16 04:18 am-------30.06-- 42.8----
2024-04-16 04:12 am-------30.06-- 42.8----
2024-04-16 04:06 am-------30.06-- 42.8----
2024-04-16 04:00 am-------30.05+0.05- 42.8----
2024-04-16 03:54 am-------30.05-- 42.8----
2024-04-16 03:48 am-------30.05-- 42.8----
2024-04-16 03:42 am-------30.05-- 42.8----
2024-04-16 03:36 am-------30.05-- 42.8----
2024-04-16 03:30 am-------30.05-- 42.8----
2024-04-16 03:24 am-------30.04-- 42.8----
2024-04-16 03:18 am-------30.04-- 42.8----
2024-04-16 03:12 am-------30.04-- 42.8----
2024-04-16 03:06 am-------30.04-- 42.8----
2024-04-16 03:00 am-------30.03+0.04- 42.8----
2024-04-16 02:54 am-------30.03-- 42.8----
2024-04-16 02:48 am-------30.03-- 42.8----
2024-04-16 02:42 am-------30.03-- 42.8----
2024-04-16 02:36 am-------30.03-- 42.8----
2024-04-16 02:30 am-------30.03-- 42.8----
2024-04-16 02:24 am-------30.03-- 42.8----
2024-04-16 02:18 am-------30.03-- 43.0----
2024-04-16 02:12 am-------30.02-- 43.0----
2024-04-16 02:06 am-------30.02-- 43.0----
2024-04-16 02:00 am-------30.02+0.03- 42.8----
2024-04-16 01:54 am-------30.02-- 43.0----
2024-04-16 01:48 am-------30.02-- 43.0----
2024-04-16 01:42 am-------30.01-- 43.0----
2024-04-16 01:36 am-------30.01-- 43.0----
2024-04-16 01:30 am-------30.01-- 43.0----
2024-04-16 01:24 am-------30.01-- 43.0----
2024-04-16 01:18 am-------30.01-- 43.0----
2024-04-16 01:12 am-------30.01-- 43.0----
2024-04-16 01:06 am-------30.01-- 43.0----
2024-04-16 01:00 am-------30.01+0.03- 43.0----
2024-04-16 12:54 am-------30.01-- 43.0----
2024-04-16 12:48 am-------30.00-- 43.0----
2024-04-16 12:42 am-------30.00-- 43.0----
2024-04-16 12:36 am-------30.00-- 43.0----
2024-04-16 12:30 am-------30.00-- 43.0----
2024-04-16 12:24 am-------30.00-- 43.0----
2024-04-16 12:18 am-------30.00-- 43.0----
2024-04-16 12:12 am-------29.99-- 43.0----
2024-04-16 12:06 am-------29.99-- 43.0----
2024-04-16 12:00 am-------29.99+0.02- 43.0----
2024-04-15 11:54 pm-------29.99-- 43.0----
2024-04-15 11:48 pm-------29.99-- 43.0----
2024-04-15 11:42 pm-------29.99-- 43.0----
2024-04-15 11:36 pm-------29.99-- 43.0----
2024-04-15 11:30 pm-------29.99-- 43.0----
2024-04-15 11:24 pm-------29.98-- 43.0----
2024-04-15 11:18 pm-------29.98-- 43.0----
2024-04-15 11:12 pm-------29.98-- 43.0----
2024-04-15 11:06 pm-------29.98-- 43.0----
2024-04-15 11:00 pm-------29.98+0.06- 43.0----
2024-04-15 10:54 pm-------29.98-- 43.0----
2024-04-15 10:48 pm-------29.98-- 43.0----
2024-04-15 10:42 pm-------29.98-- 43.0----
2024-04-15 10:36 pm-------29.98-- 43.0----
2024-04-15 10:30 pm-------29.98-- 43.0----
2024-04-15 10:24 pm-------29.98-- 43.0----
2024-04-15 10:18 pm-------29.98-- 43.0----
2024-04-15 10:12 pm-------29.97-- 43.0----
2024-04-15 10:06 pm-------29.98-- 43.0----
2024-04-15 10:00 pm-------29.97+0.06- 43.0----
2024-04-15 09:54 pm-------29.97-- 43.0----
2024-04-15 09:48 pm-------29.97-- 43.0----
2024-04-15 09:42 pm-------29.97-- 43.0----
2024-04-15 09:36 pm-------29.97-- 43.0----
2024-04-15 09:30 pm-------29.96-- 43.0----
2024-04-15 09:24 pm-------29.96-- 42.8----
2024-04-15 09:18 pm-------29.97-- 42.8----
2024-04-15 09:12 pm-------29.97-- 42.8----
2024-04-15 09:06 pm-------29.97-- 42.8----
2024-04-15 09:00 pm-------29.97+0.06- 42.8----
2024-04-15 08:54 pm-------29.97-- 42.8----
2024-04-15 08:48 pm-------29.96-- 42.8----
2024-04-15 08:42 pm-------29.97-- 42.8----
2024-04-15 08:36 pm-------29.97-- 42.8----
2024-04-15 08:30 pm-------29.97-- 42.8----
2024-04-15 08:24 pm-------29.93-- 42.8----
2024-04-15 08:18 pm-------29.93-- 42.8----
2024-04-15 08:12 pm-------29.93-- 42.8----
2024-04-15 08:06 pm-------29.93-- 42.8----
2024-04-15 08:00 pm-------29.93+0.01- 42.8----
2024-04-15 07:54 pm-------29.92-- 42.8----
2024-04-15 07:48 pm-------29.92-- 42.8----
2024-04-15 07:42 pm-------29.92-- 42.8----
2024-04-15 07:36 pm-------29.92-- 43.0----
2024-04-15 07:30 pm-------29.92-- 42.8----
2024-04-15 07:24 pm-------29.92-- 42.8----
2024-04-15 07:18 pm-------29.92-- 43.0----
2024-04-15 07:12 pm-------29.92-- 42.8----
2024-04-15 07:06 pm-------29.92-- 43.0----
2024-04-15 07:00 pm-------29.92+0.01- 43.0----
2024-04-15 06:54 pm-------29.92-- 43.0----
2024-04-15 06:48 pm-------29.92-- 43.0----
2024-04-15 06:42 pm-------29.92-- 42.8----
2024-04-15 06:36 pm-------29.92-- 42.8----
2024-04-15 06:30 pm-------29.92-- 43.0----
2024-04-15 06:24 pm-------29.91-- 43.0----
2024-04-15 06:18 pm-------29.91-- 43.0----
2024-04-15 06:12 pm-------29.91-- 43.0----
2024-04-15 06:06 pm-------29.91-- 43.0----
2024-04-15 06:00 pm-------29.91+0.01- 43.0----
2024-04-15 05:54 pm-------29.91-- 43.0----
2024-04-15 05:48 pm-------29.91-- 43.0----
2024-04-15 05:42 pm-------29.91-- 43.0----
2024-04-15 05:36 pm-------29.91-- 43.0----
2024-04-15 05:30 pm-------29.91-- 43.0----
2024-04-15 05:24 pm-------29.91-- 43.0----
2024-04-15 05:18 pm---------- 43.0----
2024-04-15 05:12 pm---------- 43.0----
2024-04-15 05:06 pm---------- 43.0----
2024-04-15 05:00 pm-------29.91+0.02- 43.0----
2024-04-15 04:54 pm-------29.91-- 43.0----
2024-04-15 04:48 pm-------29.91-- 43.0----
2024-04-15 04:42 pm-------29.91-- 43.0----
2024-04-15 04:36 pm-------29.91-- 43.0----
2024-04-15 04:30 pm-------29.91-- 43.0----
2024-04-15 04:24 pm-------29.91-- 43.2----
2024-04-15 04:18 pm-------29.90-- 43.2----
2024-04-15 04:12 pm-------29.91-- 43.2----
2024-04-15 04:06 pm-------29.91-- 43.2----
2024-04-15 04:00 pm-------29.90+0.01- 43.2----
2024-04-15 03:54 pm-------29.90-- 43.2----